Location: Gadern
(49.5873°N, 8.8138°E)
Time: 19:05:16
(UTC+00:00)

Cosmos 2219 Rocket - Pass Details

Date: 19 May 2025
Orbit: 828 x 844 km, 71.0° (Epoch: 20 June)

Event Time Altitude Azimuth Distance (km) Brightness Sun altitude
Rises 22:19:58 0° 334° (NNW) 3,401 6.9 -19.1°
Reaches altitude 10° 22:22:45 10° 345° (NNW) 2,460 5.9 -19.2°
Maximum altitude 22:27:40 30° 46° (NE) 1,465 3.7 -19.4°
Enters shadow 22:32:26 11° 106° (ESE) 2,405 4.3 -19.6°
